www.pogodaiklimat.ru

Погода и климат >> Архив погоды >> Россия >> Красноярский край >> Караул


ПОГОДА в Карауле

  • Прогноз погоды в Карауле
  • Монитор погоды в Карауле

АРХИВ ПОГОДЫ в Карауле

Время (UTC), дата Ветер
(напр.,м/с)
 
Видим.   Явления Облачность Т
(С)
Тd
(С)
f
(%)
Тe
(С)
Тes
(С)
Комфортность P
(гПа)
Po
(гПа)
Тmin
(С)
Tmax
(С)
R
(мм)
R24
(мм)
S
(см)
12 12.08 С 5 50 км 9/9 300 м
[Sc]
+10.8 +5.6 70 +8 +8 1016.3 1012.8 +11.0
15 12.08 С 2 50 км 9/9 300 м
[Sc]
+9.6 +6.5 81 +8 +8 1016.6 1013.0
18 12.08 С 2 20 км 8/6 300 м
[Sc Ac trans]
+8.9 +6.5 85 +7 +7 1016.8 1013.3
21 12.08 С 2 20 км 8/3 300 м
[Sc Ac trans]
+8.0 +6.1 88 +6 +6 1016.8 1013.6
00 13.08 ЮВ 2 10 км слаб. ливневой дождь 10/6 300 м
[Cb cap Ac und]
+8.6 +8.0 96 +7 +7 1017.1 1013.6 +7.8 0.3
03 13.08 штиль 0 20 км слаб. ливневой дождь 10/10 600 м
[Cb cap]
+9.2 +8.1 93 +8 +8 1017.1 1013.6
06 13.08 штиль 0 20 км в посл. час ливневой дождь 10/10 600 м
[Cb cap]
+9.9 +8.9 93 +9 +9 1017.5 1014.0
09 13.08 З 2 20 км 9/9 600 м
[Cb cap]
+11.9 +7.1 72 +11 +11 1017.9 1014.5
12 13.08 С 3 20 км 9/9 600 м
[Cb cap]
+11.8 +8.0 78 +10 +10 1019.0 1015.5 +12.2 1
15 13.08 С 4 50 км 9/9 300 м
[Sc]
+10.8 +7.0 77 +8 +8 1019.8 1016.3
18 13.08 СВ 4 20 км 3/3 300 м
[Sc]
+7.2 +6.1 93 +4 +4 1020.8 1017.3
21 13.08 штиль 0 20 км 3/3 300 м
[Sc]
+4.0 +3.0 93 +3 +3 1022.3 1018.7
00 14.08 С 2 20 км 1/1 300 м
[Sc]
+6.5 +5.1 91 +4 +5 1023.0 1019.5 +3.8
03 14.08 штиль 0 50 км 1/1 300 м
[Cu hum]
+11.0 +5.8 70 +11 +15 1023.4 1019.9
06 14.08 ЮЗ 1 50 км ясно +13.0 +5.3 59 +13 +21 1023.6 1020.1
09 14.08 ЮЗ 1 50 км 1/0
[Ci fib]
+15.6 +5.8 52 +16 +22 1023.2 1019.7
12 14.08 штиль 0 50 км 3/0
[Ci fib]
+15.8 +7.8 59 +16 +18 1023.1 1020.1 +16.0
15 14.08 СВ 3 50 км 4/0
[Ci fib]
+12.2 +8.6 79 +11 +11 1021.9 1018.4
18 14.08 В 3 50 км 3/0 2000 м
[Ac trans Ci fib]
+10.8 +6.5 75 +9 +9 1021.1 1017.6
21 14.08 В 5 50 км 8/0 2000 м
[Ac trans]
+12.0 +8.4 79 +10 +10 1019.9 1016.4
00 15.08 В 4 50 км 9/0 2000 м
[Ac trans]
+10.8 +9.2 90 +8 +8 1019.0 1015.5 +10.6
03 15.08 ЮВ 3 50 км 4/0 2000 м
[Ac trans Ci fib]
+12.1 +8.6 79 +11 +13 1018.7 1015.2
06 15.08 ЮВ 7 50 км 3/0 2000 м
[Ac trans]
+17.4 +10.3 63 +16 +18 1017.7 1014.3
09 15.08 ЮВ 7 50 км 9/6 600 м
[Sc Ac trans]
+18.0 +10.2 60 +17 +18 1016.5 1013.1
12 15.08 ЮВ 2 50 км 9/9 600 м
[Sc]
+16.8 +10.0 64 +17 +17 1016.4 1013.0 +18.4
15 15.08 В 3 50 км 3/0
[Ci fib]
+14.2 +9.8 75 +13 +13 1015.0 1011.6
18 15.08 В 3 50 км 3/0
[Ci fib]
+11.4 +7.4 76 +10 +10 1014.9 1011.4
21 15.08 В 2 50 км 3/0
[Ci fib]
-9.0 +5.8 100 -14 -14 1014.9 1011.4
00 16.08 ЮВ 4 20 км 8/0 2000 м
[Ac trans]
+10.2 +7.7 84 +8 +8 1014.9 1011.4 +8.8
03 16.08 ЮЗ 3 20 км слаб. ливневой дождь 10/8 1000 м
[Cb cap Ac As]
+15.2 +12.8 86 +14 +15 1015.1 1011.7
06 16.08 Ю 2 20 км {ливн. осадки} 8/8 1000 м
[Sc]
+16.9 +14.3 85 +17 +18 1014.8 1011.4
09 16.08 штиль 0 50 км 9/9 600 м
[Sc]
+19.8 +14.7 72 +22 +22 комфорт 1014.6 1011.2
12 16.08 ЮВ 3 20 км 9/0 2000 м
[Ac trans]
+18.5 +14.7 79 +19 +20 1014.2 1010.8 +19.8 0.2
15 16.08 В 4 20 км 9/6 600 м
[Sc Ac trans]
+17.3 +13.8 80 +17 +17 1013.3 1009.9
18 16.08 В 5 20 км 9/8 600 м
[Sc Ac trans]
+17.3 +15.6 90 +17 +17 1012.4 1009.0
21 16.08 ЮВ 5 20 км 9/9 600 м
[Sc]
+15.6 +14.0 90 +14 +14 1011.5 1008.1
00 17.08 ЮВ 7-11
{11}
20 км 9/3 600 м
[Sc Ac trans]
+15.7 +13.3 86 +14 +14 1010.8 1007.4 +15.4
03 17.08 ЮВ 7-10
{11}
20 км 9/3 600 м
[Sc Ac trans]
+17.2 +15.5 90 +16 +17 1010.2 1006.8
06 17.08 ЮВ 6
{10}
20 км {гроза, ливн. осадки} 9/8 300 м
[Cb cap Ac trans]
+18.8 +18.1 96 +20 +20 1009.3 1005.9
09 17.08 Ю 6 20 км 9/4 600 м
[Sc Ac trans]
+21.4 +16.6 74 +25 +26 комфорт 1008.8 1005.5
12 17.08 ЮЗ 7 20 км в посл. час ливневой дождь 10/8 300 м
[Cb cap Ac As]
+18.4 +14.4 78 +18 +18 1009.6 1006.2 +21.8 3
15 17.08 ЮВ 7
{10}
20 км {ливн. осадки} 8/3 600 м
[Sc Ac trans Ci fib]
+16.5 +15.3 93 +15 +15 1009.2 1005.8
18 17.08 ЮВ 7-10
{10}
20 км {ливн. осадки} 8/3 600 м
[Sc Ac trans]
+15.2 +14.5 96 +13 +13 1009.8 1006.4
21 17.08 ЮВ 6
{10}
20 км 8/4 600 м
[Sc Ac trans]
+14.2 +13.8 97 +12 +12 1010.4 1007.0
00 18.08 ЮВ 5 20 км 9/8 600 м
[Sc Ac trans]
+13.6 +13.2 97 +12 +12 1011.1 1007.7 +13.4 0.0
03 18.08 ЮВ 3 20 км 9/8 600 м
[Sc Ac trans]
+14.7 +13.8 94 +14 +14 1011.9 1008.5
06 18.08 ЮВ 7 50 км 8/4 600 м
[Sc Ac trans]
+16.3 +13.8 85 +15 +15 1012.1 1008.7
09 18.08 ЮВ 2 50 км 9/9 600 м
[Sc]
+17.0 +13.6 80 +17 +18 1012.6 1009.2
12 18.08 ЮВ 2 50 км 9/9 600 м
[Sc]
+16.8 +11.2 70 +17 +17 1013.6 1010.2 +17.4
15 18.08 З 4 20 км 9/6 600 м
[Sc Ac trans]
+14.4 +11.4 82 +13 +13 1016.1 1012.7
18 18.08 З 2 20 км 8/3 600 м
[Sc Ac trans]
+13.2 +10.7 85 +12 +12 1018.7 1015.3
21 18.08 З 2 20 км 10/8 600 м
[Sc Ac und]
+12.0 +10.0 88 +11 +11 1020.9 1017.5
00 19.08 С 5 20 км {ливн. осадки} 10/10 600 м
[Cb cap]
+11.8 +11.0 95 +9 +9 1021.6 1018.1 +11.7 0.2
03 19.08 С 7-10
{10}
20 км 10/10 300 м
[Sc]
+12.6 +10.9 89 +10 +10 1021.7 1018.2
06 19.08 С 7-10
{10}
20 км 10/10 300 м
[Sc]
+12.8 +10.7 87 +10 +10 1022.3 1018.8

 

Местоположение метеостанции Караул (Красноярский край, Россия): широта 70.08 долгота 83.17 высота над уровнем моря 29 м.

В архиве по умолчанию представлена погода в Карауле за последнюю неделю. Архивные данные за месяц целиком и за предыдущие месяцы, начиная с января 2011 года, Вы можете получить, выбрав интересующий диапазон дат из раскрывающегося списка и нажав кнопку "Ввод!".


*Определитесь, кто Вы:
робот инопланетянин человек

Внимание! Время в таблицах - всемирное. Для получения местного времени необходимо прибавить поправку, которая равна 7 ч.

Смотрите также архив погоды в соседних городах и на ближайших метеорологических станциях:

Погода в Гыде (Ямало-Ненецкий АО, Россия) (196 км)
Погода в Потапово (Красноярский край, Россия) (198 км)
Погода в Сопочной Карге (Красноярский край, Россия) (200 км)
Погода в Норильске (Красноярский край, Россия) (215 км)
Погода в Крестах Таймырских (Красноярский край, Россия) (265 км)
Погода в Антипаюте (Ямало-Ненецкий АО, Россия) (269 км)
Погода в Снежногорске (Красноярский край, Россия) (286 км)
Погода в Игарке (Красноярский край, Россия) (321 км)
Погода в Тазовском (Ямало-Ненецкий АО, Россия) (341 км)
Погода в Горбиачине (Красноярский край, Россия) (345 км)

Пояснения к столбцам:

Ветер - указаны скорость ветра в м/с - средняя за 10 мин, порывы в срок и между сроками (в фигурных скобках) и направление, откуда дует ветер: С - северный, СВ - северо-восточный, В - восточный, ЮВ - юго-восточный, Ю - южный, ЮЗ - юго-западный, З - западный, СЗ - северо-западный.
Видимость - горизонтальная дальность видимости в метрах или километрах. При видимости от 1 до 10 км при отсутствии осадков обычно наблюдается дымка, при ухудшении видимости до 1 км и менее - туман. В сухую погоду видимость может ухудшаться дымом, пылью или мглою.
Явления - указаны атмосферные явления, наблюдавшиеся в срок или в последний час перед сроком; фигурными скобками обозначены явления, наблюдавшиеся между сроками (за 1-3 часа до срока); квадратными скобками обозначены град или гололедные отложения с указанием их диаметра в мм.
Облачность - указаны через наклонную черту общая и нижняя облачность в баллах и высота нижней границы облаков в метрах; квадратными скобками обозначены формы облаков: Ci - перистые, Cs - перисто-слоистые, Cc - перисто-кучевые, Ac - высококучевые, As - высокослоистые, Sc - слоисто-кучевые, Ns - слоисто-дождевые, Cu - кучевые, Cb - кучево-дождевые. Подробнее классификацию облаков см. в Атласе облаков (PDF).
T - Температура воздуха - температура, измеренная на высоте 2 м над землей.
Td - Температура точки росы - температура, при понижении до которой содержащийся в воздухе водяной пар достигнет насыщения.
f - Относительная влажность воздуха - влажноcть воздуха, измеренная на высоте 2 м над землей.
Te - Эффективная температура - температура, которую ощущает одетый по сезону человек в тени. Характеристика душности погоды. При расчете учитывается влияние влажности воздуха и скорости ветра на теплоощущения человека.
Tes - Эффективная температура на солнце - температура, которую ощущает человек, с поправкой на солнечный нагрев. Характеристика знойности погоды. Зависит от высоты солнца над горизонтом, облачности и скорости ветра. Ночью, в пасмурную погоду, а также при ветре 12 м/с и более поправка равна нулю.
P - Атмосферное давление - приведенное к уровню моря атмосферное давление.
Po - Атмосферное давление - измеренное на уровне метеостанции атмосферное давление.
Tmin - Минимальная температура - минимум температуры воздуха на высоте 2 м над землей.
Tmax - Максимальная температура - максимум температуры воздуха на высоте 2 м над землей.
R - Количество осадков - Количество выпавших осадков за период времени, мм. При наведении курсора мыши на число - период времени, за который выпало указанное количество осадков.
R24 - Количество осадков - Количество выпавших осадков за 24 часа, мм.
S - Снежный покров - Высота снежного покрова, см. При наведении курсора мыши на число - состояние снежного покрова и степень покрытия местности в баллах.